Sigfox identifier Datetime Temperature Humidity SNR
003C468E 2019-02-20 13:44:36 20.8 22 23.7
003C468E 2019-02-20 12:40:05 20.8 24 22.9
003C468E 2019-02-20 12:08:09 20.8 25 22.9
003C468E 2019-02-20 11:36:16 20.8 25 21.9
003C468E 2019-02-20 11:04:22 20.7 26 21.9
003C468E 2019-02-20 10:00:34 20.7 27 20.6
003C468E 2019-02-20 09:28:39 20.6 27 20.6
003C468E 2019-02-20 08:56:45 20.6 27 18.9
003C468E 2019-02-20 08:24:52 20.6 27 18.9
003C468E 2019-02-20 07:52:59 20.5 27 18.9
003C468E 2019-02-20 07:21:05 20.6 27 18.9
003C468E 2019-02-20 06:49:09 20.6 27 20.6
003C468E 2019-02-20 06:17:14 20.6 27 20.6
003C468E 2019-02-20 05:45:18 20.6 27 20.5
003C468E 2019-02-20 05:13:25 20.6 27 20.4
003C468E 2019-02-20 04:41:28 20.6 27 20.3
003C468E 2019-02-20 04:09:35 20.6 27 20.2
003C468E 2019-02-20 03:37:35 20.6 27 20.4
003C468E 2019-02-20 03:05:40 20.6 27 21.7
003C468E 2019-02-20 02:33:46 20.6 27 21.8
003C468E 2019-02-20 02:01:51 20.7 27 21.9
003C468E 2019-02-20 01:29:57 20.7 27 21.8
003C468E 2019-02-20 00:58:04 20.7 27 21.8
003C468E 2019-02-20 00:26:09 20.7 27 21.8
003C468E 2019-02-19 23:54:15 20.7 27 21.8
003C468E 2019-02-19 23:22:21 20.7 27 21.8
003C468E 2019-02-19 22:50:26 20.7 27 22.8
003C468E 2019-02-19 22:18:31 20.7 27 22.8
003C468E 2019-02-19 21:46:38 20.7 27 22.8
003C468E 2019-02-19 21:14:44 20.7 27 21.7
003C468E 2019-02-19 20:42:49 20.7 27 21.8
003C468E 2019-02-19 20:10:53 20.8 27 21.8
003C468E 2019-02-19 19:38:59 20.8 27 21.8
003C468E 2019-02-19 19:07:06 20.8 27 21.8
003C468E 2019-02-19 18:35:13 20.9 27 21.8
003C468E 2019-02-19 18:03:21 20.9 27 21.9
003C468E 2019-02-19 17:31:26 21 27 20.7
003C468E 2019-02-19 16:59:31 21 28 20.7
003C468E 2019-02-19 16:27:40 21 28 20.7
003C468E 2019-02-19 15:55:44 21 28 20.8
003C468E 2019-02-19 15:23:51 20.9 27 20.8
003C468E 2019-02-19 14:51:56 21 27 20.9
003C468E 2019-02-19 14:20:01 21 28 20.7
003C468E 2019-02-19 13:48:06 21 28 19
003C468E 2019-02-19 13:16:12 20.9 27 18.8
003C468E 2019-02-19 12:44:13 20.9 27 18.9
003C468E 2019-02-19 12:12:18 20.9 27 19
003C468E 2019-02-19 11:40:25 20.9 27 19.2
003C468E 2019-02-19 11:08:31 20.9 27 19.2
003C468E 2019-02-19 10:35:54 20.9 27 19.3
003C468E 2019-02-19 10:03:59 20.8 27 19.3
003C468E 2019-02-19 09:32:05 20.7 26 16.6
003C468E 2019-02-19 09:00:10 20.7 26 16.6
003C468E 2019-02-19 08:28:19 20.6 26 17
003C468E 2019-02-19 07:56:18 20.6 25 17.1
003C468E 2019-02-19 07:24:23 20.6 25 17.3
003C468E 2019-02-19 06:52:27 20.6 25 17.4
003C468E 2019-02-19 06:20:30 20.6 25 17.4
003C468E 2019-02-19 05:48:32 20.6 25 17.3
003C468E 2019-02-19 05:16:37 20.6 25 17.2
003C468E 2019-02-19 04:44:41 20.6 25 19.5
003C468E 2019-02-19 04:12:46 20.6 25 19.6
003C468E 2019-02-19 03:40:50 20.7 24 19.6
003C468E 2019-02-19 03:08:53 20.6 24 19.7
003C468E 2019-02-19 02:36:58 20.6 24 19.7
003C468E 2019-02-19 02:05:01 20.6 24 19.4
003C468E 2019-02-19 01:33:05 20.6 24 19.4
003C468E 2019-02-19 01:01:10 20.6 24 19.6
003C468E 2019-02-19 00:29:15 20.6 24 19.7
003C468E 2019-02-18 23:57:18 20.6 24 19.8
003C468E 2019-02-18 23:25:23 20.7 23 19.9
003C468E 2019-02-18 22:53:30 20.7 23 20.1
003C468E 2019-02-18 22:21:33 20.7 23 20.2
003C468E 2019-02-18 21:49:38 20.7 23 20.2
003C468E 2019-02-18 21:17:43 20.8 23 20.4
003C468E 2019-02-18 20:45:47 20.8 22 20.6
003C468E 2019-02-18 20:13:51 20.7 22 20.8
003C468E 2019-02-18 19:41:56 20.7 22 20.9
003C468E 2019-02-18 19:10:00 20.7 22 21
003C468E 2019-02-18 18:38:03 20.8 22 21.1
003C468E 2019-02-18 18:06:08 20.8 22 21.2
003C468E 2019-02-18 17:34:14 20.8 21 21.4
003C468E 2019-02-18 17:02:19 20.9 22 21.5
003C468E 2019-02-18 16:30:24 20.9 22 21.7
003C468E 2019-02-18 15:58:27 20.9 22 21.8
003C468E 2019-02-18 15:26:32 21 21 20.8
003C468E 2019-02-18 14:54:38 21 21 21.9
003C468E 2019-02-18 14:22:42 21.1 21 22.1
003C468E 2019-02-18 13:50:48 21.1 20 22.1
003C468E 2019-02-18 13:18:54 21.1 20 22.3
003C468E 2019-02-18 12:47:01 21.3 20 22.5
003C468E 2019-02-18 12:15:07 21.5 20 22.7
003C468E 2019-02-18 11:43:11 21.4 19 22.7
003C468E 2019-02-18 11:11:16 21.3 19 22.7
003C468E 2019-02-18 10:39:20 21.3 19 22.7
003C468E 2019-02-18 10:07:26 21.2 19 22.8
003C468E 2019-02-18 09:35:31 21.2 18 22.8
003C468E 2019-02-18 09:03:35 21.2 18 22.9
003C468E 2019-02-18 08:31:39 21.2 18 22.9
003C468E 2019-02-18 07:59:01 21 18 22.9
003C468E 2019-02-18 07:27:04 20.9 18 23
003C468E 2019-02-18 06:55:07 20.7 18 22.9
003C468E 2019-02-18 06:23:10 20.7 18 22.9
003C468E 2019-02-18 05:51:14 20.8 18 22.9
003C468E 2019-02-18 05:19:17 20.8 18 22.9
003C468E 2019-02-18 04:47:21 20.8 18 22.9
003C468E 2019-02-18 04:15:26 20.7 18 23
003C468E 2019-02-18 03:43:31 20.7 18 23
003C468E 2019-02-18 03:11:37 20.7 18 23
003C468E 2019-02-18 02:39:41 20.7 18 23
003C468E 2019-02-18 02:07:46 20.7 18 23.7
003C468E 2019-02-18 01:35:51 20.8 18 23
003C468E 2019-02-18 01:03:57 20.9 18 23
003C468E 2019-02-18 00:32:01 20.8 18 23
003C468E 2019-02-18 00:00:05 20.9 18 22.9
003C468E 2019-02-17 23:28:10 20.9 18 22.9
003C468E 2019-02-17 22:56:14 20.8 18 22.9
003C468E 2019-02-17 22:24:19 20.8 19 22.9
003C468E 2019-02-17 21:52:25 20.9 19 22.9
003C468E 2019-02-17 21:20:28 20.8 19 23
003C468E 2019-02-17 20:48:31 20.8 19 22.9
003C468E 2019-02-17 20:16:33 20.8 19 22.9
003C468E 2019-02-17 19:44:36 20.9 19 22.8
003C468E 2019-02-17 19:12:38 20.9 19 23.6
003C468E 2019-02-17 18:40:42 20.9 19 23.5
003C468E 2019-02-17 18:08:44 20.7 19 23.5
003C468E 2019-02-17 17:36:47 20.9 19 23.5
003C468E 2019-02-17 17:04:51 20.9 19 23.5
003C468E 2019-02-17 16:32:53 20.9 19 23.5
003C468E 2019-02-17 16:00:57 20.9 19 23.5
003C468E 2019-02-17 15:28:59 20.9 20 23.5
003C468E 2019-02-17 14:57:03 20.9 20 23.5
003C468E 2019-02-17 14:25:09 20.9 20 23.4
003C468E 2019-02-17 13:53:14 21 20 23.4
003C468E 2019-02-17 13:21:19 21.1 20 23.4
003C468E 2019-02-17 12:49:24 21.1 20 22.7
003C468E 2019-02-17 12:17:28 21.1 20 22.7
003C468E 2019-02-17 11:45:32 21 20 22.6
003C468E 2019-02-17 11:13:35 20.9 20 22.6
003C468E 2019-02-17 10:41:39 20.9 20 22.6
003C468E 2019-02-17 10:09:43 20.9 20 22.6
003C468E 2019-02-17 09:37:47 20.9 20 22.5
003C468E 2019-02-17 09:05:51 20.8 20 22.5
003C468E 2019-02-17 08:33:54 20.9 21 23.2
003C468E 2019-02-17 08:01:57 20.9 21 23.3
003C468E 2019-02-17 07:30:01 20.9 21 23.3
003C468E 2019-02-17 06:58:06 20.9 21 23.3
003C468E 2019-02-17 06:26:09 20.9 21 23.4
003C468E 2019-02-17 05:54:13 20.9 21 22.5
003C468E 2019-02-17 05:21:35 20.9 21 22.6
003C468E 2019-02-17 04:49:38 20.9 22 22.6
003C468E 2019-02-17 04:17:42 21 22 22.6
003C468E 2019-02-17 03:45:46 21 22 22.7
003C468E 2019-02-17 03:13:50 21 22 22.7
003C468E 2019-02-17 02:41:55 21 23 22.7
003C468E 2019-02-17 02:09:59 21 23 22.7
003C468E 2019-02-17 01:38:02 20.9 23 22.7
003C468E 2019-02-17 01:06:06 21 23 22.7
003C468E 2019-02-17 00:34:10 20.9 24 22.6
003C468E 2019-02-17 00:02:16 21 24 23.4
003C468E 2019-02-16 23:30:22 20.9 24 24
003C468E 2019-02-16 22:58:26 20.9 24 24.1
003C468E 2019-02-16 22:26:31 21 24 24.1
003C468E 2019-02-16 21:54:35 21.1 24 24.1
003C468E 2019-02-16 21:22:38 21 24 24.1
003C468E 2019-02-16 20:50:41 21.1 25 24.2
003C468E 2019-02-16 20:18:46 21.1 25 24.7
003C468E 2019-02-16 19:46:51 21.1 25 24.7
003C468E 2019-02-16 19:14:55 20.9 25 24.2
003C468E 2019-02-16 18:43:00 20.9 25 24.1
003C468E 2019-02-16 18:11:05 20.8 25 24.1
003C468E 2019-02-16 17:39:10 20.9 25 24.2
003C468E 2019-02-16 17:07:15 21.1 25 24.1
003C468E 2019-02-16 16:35:21 21.1 25 24.2
003C468E 2019-02-16 16:03:25 21.1 25 24.2
003C468E 2019-02-16 15:31:29 21.2 25 24.2
003C468E 2019-02-16 14:59:35 21.2 25 24.2
003C468E 2019-02-16 14:27:41 21.2 25 24.2
003C468E 2019-02-16 13:55:46 21.1 25 24.2
003C468E 2019-02-16 13:23:51 21.1 25 24.2
003C468E 2019-02-16 12:51:56 21.1 25 24.2
003C468E 2019-02-16 12:20:00 21.1 25 24.2
003C468E 2019-02-16 11:48:04 21.1 25 24.2
003C468E 2019-02-16 11:16:09 21 25 24.2
003C468E 2019-02-16 10:44:14 21 25 23.6
003C468E 2019-02-16 10:12:18 20.9 25 22.9
003C468E 2019-02-16 09:40:23 21 25 22.8
003C468E 2019-02-16 09:08:28 21 25 22.9
003C468E 2019-02-16 08:36:32 20.9 25 22.9
003C468E 2019-02-16 08:04:38 20.9 25 23
003C468E 2019-02-16 07:32:42 20.9 25 23
003C468E 2019-02-16 07:00:48 21 25 22.2
003C468E 2019-02-16 06:28:53 20.9 25 22.3
003C468E 2019-02-16 05:56:57 20.9 25 22.2
003C468E 2019-02-16 05:25:02 20.9 26 23
003C468E 2019-02-16 04:53:06 20.9 26 23
003C468E 2019-02-16 04:21:11 21 26 23
003C468E 2019-02-16 03:49:17 20.9 25 23
003C468E 2019-02-16 03:17:22 20.9 25 23
003C468E 2019-02-16 02:44:43 20.9 25 23
003C468E 2019-02-16 02:12:45 21 25 23
003C468E 2019-02-16 01:40:48 21 25 23
003C468E 2019-02-16 01:08:51 21 25 23
003C468E 2019-02-16 00:36:55 21 26 23.1
003C468E 2019-02-16 00:04:58 21 26 23
003C468E 2019-02-15 23:33:03 21 26 23
003C468E 2019-02-15 23:01:06 21 26 23
003C468E 2019-02-15 22:29:11 21.1 26 22.9
003C468E 2019-02-15 21:57:17 21.2 26 22.9
003C468E 2019-02-15 21:25:22 21.2 26 22.8
003C468E 2019-02-15 20:53:27 21.3 25 22.8
003C468E 2019-02-15 20:21:30 21.4 25 22.9
003C468E 2019-02-15 19:49:34 21.6 25 22.9
003C468E 2019-02-15 19:17:39 21.7 25 22.9
003C468E 2019-02-15 18:45:43 21.8 25 22.7
003C468E 2019-02-15 18:13:48 21.7 25 22.7
003C468E 2019-02-15 17:41:54 21.8 25 22.6
003C468E 2019-02-15 17:10:00 21.8 24 22.6
003C468E 2019-02-15 16:38:05 21.7 24 22.6
003C468E 2019-02-15 16:06:10 21.7 24 21.8
003C468E 2019-02-15 15:34:15 21.7 23 21.8
003C468E 2019-02-15 15:02:19 21.8 23 21.8
003C468E 2019-02-15 14:30:25 21.7 23 21.8
003C468E 2019-02-15 13:58:29 21.7 23 21.7
003C468E 2019-02-15 13:26:35 21.8 23 21.7
003C468E 2019-02-15 12:54:40 21.7 23 21.7
003C468E 2019-02-15 12:22:46 21.6 23 21.6
003C468E 2019-02-15 11:50:49 21.6 24 21.7
003C468E 2019-02-15 11:18:55 21.6 24 21.6
003C468E 2019-02-15 10:47:00 21.6 24 21.6
003C468E 2019-02-15 10:15:06 21.5 24 21.6
003C468E 2019-02-15 09:43:10 21.5 24 21.7
003C468E 2019-02-15 09:11:15 21.5 25 21.8
003C468E 2019-02-15 08:39:19 21.3 25 21.8
003C468E 2019-02-15 08:07:25 21.3 25 21.8
003C468E 2019-02-15 07:35:30 21.2 25 21.7
003C468E 2019-02-15 07:03:36 21.2 25 21.8
003C468E 2019-02-15 06:31:42 21.2 25 21.9
003C468E 2019-02-15 05:59:48 21.1 25 22
003C468E 2019-02-15 05:27:50 21.2 25 21.9
003C468E 2019-02-15 04:55:54 21.2 25 21.8
003C468E 2019-02-15 04:23:58 21.1 26 21.9
003C468E 2019-02-15 03:52:02 21.2 26 21.7
003C468E 2019-02-15 03:20:07 21.2 26 21.5
003C468E 2019-02-15 02:48:11 21.1 26 21.5
003C468E 2019-02-15 02:16:16 21.1 26 21.3
003C468E 2019-02-15 01:44:19 21.2 26 21.3
003C468E 2019-02-15 01:12:24 21.2 26 21.1
003C468E 2019-02-15 00:40:28 21.2 26 21
003C468E 2019-02-15 00:07:49 21.2 26 20.7
003C468E 2019-02-14 23:35:52 21.2 25 20.6
003C468E 2019-02-14 23:03:57 21.2 25 20.4
003C468E 2019-02-14 22:32:00 21.3 25 20.2
003C468E 2019-02-14 22:00:04 21.3 25 20.3
003C468E 2019-02-14 21:28:07 21.3 25 20.2
003C468E 2019-02-14 20:56:11 21.3 25 20.2
003C468E 2019-02-14 20:24:15 21.4 24 20
003C468E 2019-02-14 19:52:19 21.5 24 20
003C468E 2019-02-14 19:20:23 21.8 24 19.9
003C468E 2019-02-14 18:48:26 21.9 24 20
003C468E 2019-02-14 18:16:30 21.9 24 20
003C468E 2019-02-14 17:44:34 21.8 24 19.8
003C468E 2019-02-14 17:12:36 21.9 24 19.5
003C468E 2019-02-14 16:40:39 21.9 24 19.4
003C468E 2019-02-14 16:08:43 21.9 24 19.5
003C468E 2019-02-14 15:36:47 21.8 23 19.7
003C468E 2019-02-14 15:04:52 21.7 24 19.6
003C468E 2019-02-14 14:32:56 21.7 24 19.9
003C468E 2019-02-14 14:01:00 21.6 23 20.1
003C468E 2019-02-14 13:29:04 21.5 23 21.4
003C468E 2019-02-14 12:57:08 21.5 23 21.5
003C468E 2019-02-14 12:25:12 21.4 23 21.5
003C468E 2019-02-14 11:53:16 21.3 23 21.6
003C468E 2019-02-14 11:21:20 21.3 24 21.7
003C468E 2019-02-14 10:49:23 21.1 24 21.8
003C468E 2019-02-14 10:17:24 21 24 21.9
003C468E 2019-02-14 09:45:26 20.9 23 21.9
003C468E 2019-02-14 09:13:29 20.9 24 21.9
003C468E 2019-02-14 08:41:34 20.8 24 21.8
003C468E 2019-02-14 08:09:38 20.8 24 21.8
003C468E 2019-02-14 07:37:42 20.8 25 21.7
003C468E 2019-02-14 07:05:45 20.8 25 21.7
003C468E 2019-02-14 06:33:48 20.8 25 21.7
003C468E 2019-02-14 06:01:51 20.9 25 21.7
003C468E 2019-02-14 05:29:54 20.8 25 21.5
003C468E 2019-02-14 04:57:57 20.9 25 21.4
003C468E 2019-02-14 04:26:01 20.9 25 21.3
003C468E 2019-02-14 03:54:04 20.9 25 21.1
003C468E 2019-02-14 03:22:08 20.9 25 21
003C468E 2019-02-14 02:50:12 20.9 25 20.8
003C468E 2019-02-14 02:18:16 20.9 25 20.5
003C468E 2019-02-14 01:46:19 20.9 24 20.4
003C468E 2019-02-14 01:14:23 20.9 24 20.2
003C468E 2019-02-14 00:42:28 20.9 24 20
003C468E 2019-02-14 00:10:32 20.9 24 18
003C468E 2019-02-13 23:38:36 21 24 17.9
003C468E 2019-02-13 23:06:39 21 24 19.9
003C468E 2019-02-13 22:34:44 21 24 19.9
003C468E 2019-02-13 22:02:47 21.1 24 19.8
003C468E 2019-02-13 21:30:10 21.1 25 19.7
003C468E 2019-02-13 20:58:13 21.2 25 19.7
003C468E 2019-02-13 20:26:18 21.2 25 20
003C468E 2019-02-13 19:54:20 21.3 25 20.1
003C468E 2019-02-13 19:22:24 21.3 25 20.1
003C468E 2019-02-13 18:50:27 21.4 25 20.2
003C468E 2019-02-13 18:18:32 21.5 26 20.3
003C468E 2019-02-13 17:46:37 21.5 26 20.2
003C468E 2019-02-13 17:14:40 21.4 25 20.3
003C468E 2019-02-13 16:42:44 21.4 26 20.4
003C468E 2019-02-13 16:10:48 21.3 25 20.6
003C468E 2019-02-13 15:38:52 21.2 25 20.6
003C468E 2019-02-13 15:06:56 21.2 25 20.8
003C468E 2019-02-13 14:35:00 21.1 24 20.9
003C468E 2019-02-13 14:03:04 21.2 24 21
003C468E 2019-02-13 13:31:07 21.2 24 21.1
003C468E 2019-02-13 12:59:10 21.2 24 21.3
003C468E 2019-02-13 12:27:12 21.1 24 21.4
003C468E 2019-02-13 11:55:15 21.1 24 21.5
003C468E 2019-02-13 11:23:18 21.1 24 21.5
003C468E 2019-02-13 10:51:20 21 23 21.6
003C468E 2019-02-13 10:19:23 20.9 23 21.5
003C468E 2019-02-13 09:47:26 20.9 22 20.3
003C468E 2019-02-13 09:15:30 20.8 22 20.2
003C468E 2019-02-13 08:43:35 20.8 21 21.6
003C468E 2019-02-13 08:11:38 20.8 20 21.6
003C468E 2019-02-13 07:39:38 20.8 19 21.8
003C468E 2019-02-13 07:07:39 20.8 19 21.7
003C468E 2019-02-13 06:35:40 20.8 19 21.6
003C468E 2019-02-13 06:03:41 20.8 19 21.4
003C468E 2019-02-13 05:31:43 20.8 19 21.3
003C468E 2019-02-13 04:59:44 20.8 19 21.3
003C468E 2019-02-13 04:27:46 20.9 19 21.4
003C468E 2019-02-13 03:55:49 20.8 19 21.3
003C468E 2019-02-13 03:23:52 20.9 19 21.3
003C468E 2019-02-13 02:51:55 20.9 19 21.1
003C468E 2019-02-13 02:19:59 20.9 19 21.2
003C468E 2019-02-13 01:48:03 20.9 18 21.1
003C468E 2019-02-13 01:16:06 20.9 18 21
003C468E 2019-02-13 00:44:07 20.9 19 21
003C468E 2019-02-13 00:12:10 21 19 20.9
003C468E 2019-02-12 23:40:14 21 19 20.8
003C468E 2019-02-12 23:08:17 21 19 20.9
003C468E 2019-02-12 22:36:19 21.1 19 20.7
003C468E 2019-02-12 22:04:21 21.1 19 20.7
003C468E 2019-02-12 21:32:25 21.2 20 20.8
003C468E 2019-02-12 21:00:30 21.3 21 20.9
003C468E 2019-02-12 20:28:32 21.4 20 20.9
003C468E 2019-02-12 19:56:36 21.5 20 20.9
003C468E 2019-02-12 19:24:39 21.5 20 19.4
003C468E 2019-02-12 18:52:00 21.5 20 19.4
003C468E 2019-02-12 18:20:02 21.6 19 19.4
003C468E 2019-02-12 17:48:05 21.6 19 19.6
003C468E 2019-02-12 17:16:08 21.7 19 19.5
003C468E 2019-02-12 16:44:12 21.8 19 19.7
003C468E 2019-02-12 16:12:15 21.8 19 19.7
003C468E 2019-02-12 15:40:19 21.8 19 19.8
003C468E 2019-02-12 15:08:22 21.7 19 19.8
003C468E 2019-02-12 14:36:24 21.5 19 19.8
003C468E 2019-02-12 14:04:26 21.3 20 19.5
003C468E 2019-02-12 13:32:28 21.3 20 19.8
003C468E 2019-02-12 13:00:31 21.3 20 19.8
003C468E 2019-02-12 12:28:34 21.3 20 20.1
003C468E 2019-02-12 11:56:36 21.3 20 20
003C468E 2019-02-12 11:24:39 21.2 21 20.1
003C468E 2019-02-12 10:52:40 21.3 22 20.1
003C468E 2019-02-12 10:20:42 21.1 22 20.1
003C468E 2019-02-12 09:48:43 21.1 22 20
003C468E 2019-02-12 09:16:43 21 23 20
003C468E 2019-02-12 08:44:45 20.9 23 19.9
003C468E 2019-02-12 08:12:47 20.8 24 19.7
003C468E 2019-02-12 07:40:49 20.8 24 19.5
003C468E 2019-02-12 07:08:51 20.9 25 19.3
003C468E 2019-02-12 06:36:52 20.8 25 19.3
003C468E 2019-02-12 06:04:55 20.8 26 19.1
003C468E 2019-02-12 05:32:56 20.8 26 19
003C468E 2019-02-12 05:00:57 20.9 26 18.8
003C468E 2019-02-12 04:28:57 20.9 26 18.6
003C468E 2019-02-12 03:56:58 20.9 26 18.6
003C468E 2019-02-12 03:24:58 20.9 26 18.5
003C468E 2019-02-12 02:53:00 20.9 26 18.6
003C468E 2019-02-12 02:21:05 20.9 26 18.4
003C468E 2019-02-12 01:49:05 20.9 26 18.4
003C468E 2019-02-12 01:17:07 20.9 26 18.3
003C468E 2019-02-12 00:45:08 21 26 18.5
003C468E 2019-02-12 00:13:08 21 26 18.2
003C468E 2019-02-11 23:41:11 21 27 18
003C468E 2019-02-11 23:09:10 21.1 27 17.2
003C468E 2019-02-11 22:37:10 21.1 27 17.4
003C468E 2019-02-11 22:05:11 21.1 27 17.2
003C468E 2019-02-11 21:33:12 21.2 27 16.5
003C468E 2019-02-11 21:01:13 21.3 27 16.2
003C468E 2019-02-11 20:29:11 21.4 27 15.5
003C468E 2019-02-11 19:57:12 21.5 27 15.8
003C468E 2019-02-11 19:25:12 21.6 27 15.1
003C468E 2019-02-11 18:53:12 21.7 27 15.3
003C468E 2019-02-11 18:21:13 21.8 27 14.9
003C468E 2019-02-11 17:49:14 22 27 15.1
003C468E 2019-02-11 17:17:16 22.2 27 17.5
003C468E 2019-02-11 16:45:18 22.1 32 0